| time (UTC) | temp C | wind direction | speed KPH | gust KPH | rain 1hr cm | rain 24hr cm | rain mn cm | humidity % | barometer mb |
| 20260905085810 | 26 | 219 | 0.0 | 0.0 | 0.00 | 0.00 | 0.00 | 72 | 1012.0 |
| 20260905085309 | 26 | 219 | 0.0 | 0.0 | 0.00 | 0.00 | 0.00 | 72 | 1011.9 |
| 20260905084811 | 26 | 219 | 0.0 | 0.0 | 0.00 | 0.00 | 0.00 | 71 | 1011.7 |
| 20260905084250 | 26 | 219 | 0.0 | 0.0 | 0.00 | 0.00 | 0.00 | 70 | 1011.7 |
| 20260905083723 | 27 | 219 | 0.0 | 0.0 | 0.00 | 0.00 | 0.00 | 69 | 1011.7 |
| 20260905083223 | 27 | 219 | 0.0 | 0.0 | 0.00 | 0.00 | 0.00 | 68 | 1011.6 |
| 20260905082703 | 27 | 219 | 0.0 | 0.0 | 0.00 | 0.00 | 0.00 | 67 | 1011.5 |
| 20260905082201 | 27 | 219 | 0.0 | 0.0 | 0.00 | 0.00 | 0.00 | 67 | 1011.6 |
| 20260905081640 | 27 | 219 | 0.0 | 0.0 | 0.00 | 0.00 | 0.00 | 67 | 1011.5 |
| 20260905081115 | 27 | 219 | 0.0 | 0.0 | 0.00 | 0.00 | 0.00 | 67 | 1011.6 |
| 20260905080554 | 27 | 215 | 0.0 | 0.0 | 0.00 | 0.00 | 0.00 | 67 | 1011.6 |
| 20260905080032 | 27 | 184 | 0.0 | 0.0 | 0.00 | 0.00 | 0.00 | 67 | 1011.5 |
| 20260905075514 | 27 | 270 | 0.0 | 4.8 | 0.00 | 0.00 | 0.00 | 67 | 1011.6 |
| 20260905074953 | 27 | 252 | 0.0 | 4.8 | 0.00 | 0.00 | 0.00 | 67 | 1011.6 |
| 20260905074453 | 27 | 114 | 0.0 | 3.2 | 0.00 | 0.00 | 0.00 | 68 | 1011.6 |
| 20260905073951 | 27 | 123 | 0.0 | 3.2 | 0.00 | 0.00 | 0.00 | 68 | 1011.7 |
| 20260905073452 | 27 | 211 | 0.0 | 1.6 | 0.00 | 0.00 | 0.00 | 68 | 1011.7 |
| 20260905072948 | 27 | 221 | 0.0 | 0.0 | 0.00 | 0.00 | 0.00 | 68 | 1011.9 |
| 20260905072706 | 27 | 226 | 0.0 | 0.0 | 0.00 | 0.00 | 0.00 | 67 | 1012.0 |
| 20260905072142 | 27 | 226 | 0.0 | 0.0 | 0.00 | 0.00 | 0.00 | 66 | 1012.1 |
| 20260905071639 | 27 | 226 | 0.0 | 0.0 | 0.00 | 0.00 | 0.00 | 66 | 1012.2 |
| 20260905070920 | 27 | 226 | 0.0 | 0.0 | 0.00 | 0.00 | 0.00 | 66 | 1012.3 |
| 20260905070415 | 27 | 226 | 0.0 | 0.0 | 0.00 | 0.00 | 0.00 | 65 | 1012.3 |
| 20260905070125 | 28 | 226 | 0.0 | 0.0 | 0.00 | 0.00 | 0.00 | 64 | 1012.3 |
| 20260905065346 | 28 | 226 | 0.0 | 0.0 | 0.00 | 0.00 | 0.00 | 64 | 1012.3 |
| 20260905064843 | 28 | 226 | 0.0 | 0.0 | 0.00 | 0.00 | 0.00 | 63 | 1012.3 |
| 20260905064825 | 28 | 226 | 0.0 | 0.0 | 0.00 | 0.00 | 0.00 | 62 | 1012.3 |
| 20260905063819 | 28 | 226 | 0.0 | 0.0 | 0.00 | 0.00 | 0.00 | 62 | 1012.3 |
| 20260905063252 | 28 | 226 | 0.0 | 3.2 | 0.00 | 0.00 | 0.00 | 61 | 1012.4 |
| 20260905062726 | 28 | 226 | 0.0 | 1.6 | 0.00 | 0.00 | 0.00 | 61 | 1012.3 |
| 20260905062213 | 28 | 195 | 0.0 | 3.2 | 0.00 | 0.00 | 0.00 | 61 | 1012.4 |
| 20260905061714 | 28 | 217 | 0.0 | 1.6 | 0.00 | 0.00 | 0.00 | 61 | 1012.3 |
| 20260905061149 | 29 | 215 | 0.0 | 0.0 | 0.00 | 0.00 | 0.00 | 60 | 1012.3 |
| 20260905060621 | 29 | 215 | 0.0 | 1.6 | 0.00 | 0.00 | 0.00 | 60 | 1012.3 |
| 20260905060123 | 29 | 215 | 0.0 | 3.2 | 0.00 | 0.00 | 0.00 | 60 | 1012.3 |
| 20260905055553 | 29 | 152 | 0.0 | 3.2 | 0.00 | 0.00 | 0.00 | 59 | 1012.2 |
| 20260905055052 | 29 | 266 | 0.0 | 4.8 | 0.00 | 0.00 | 0.00 | 59 | 1012.2 |
| 20260905054546 | 29 | 222 | 1.6 | 9.7 | 0.00 | 0.00 | 0.00 | 59 | 1012.1 |
| 20260905054022 | 29 | 248 | 1.6 | 9.7 | 0.00 | 0.00 | 0.00 | 59 | 1012.1 |
| 20260905053455 | 29 | 193 | 1.6 | 6.4 | 0.00 | 0.00 | 0.00 | 58 | 1012.0 |
| 20260905052927 | 30 | 122 | 1.6 | 6.4 | 0.00 | 0.00 | 0.00 | 58 | 1011.9 |
| 20260905052423 | 30 | 153 | 1.6 | 8.0 | 0.00 | 0.00 | 0.00 | 58 | 1011.9 |
| 20260905051920 | 30 | 229 | 1.6 | 9.7 | 0.00 | 0.00 | 0.00 | 58 | 1011.9 |
| 20260905051419 | 30 | 210 | 1.6 | 9.7 | 0.00 | 0.00 | 0.00 | 58 | 1011.7 |
| 20260905050852 | 30 | 177 | 1.6 | 4.8 | 0.00 | 0.00 | 0.00 | 58 | 1011.7 |
| 20260905050325 | 30 | 215 | 1.6 | 4.8 | 0.00 | 0.00 | 0.00 | 58 | 1011.6 |
| 20260905045758 | 30 | 235 | 1.6 | 6.4 | 0.00 | 0.00 | 0.00 | 58 | 1011.6 |
| 20260905045520 | 30 | 259 | 0.0 | 6.4 | 0.00 | 0.00 | 0.00 | 57 | 1011.7 |
| 20260905044747 | 30 | 149 | 1.6 | 4.8 | 0.00 | 0.00 | 0.00 | 57 | 1011.9 |
| 20260905044243 | 30 | 125 | 1.6 | 8.0 | 0.00 | 0.00 | 0.00 | 56 | 1011.9 |
| 20260905044003 | 30 | 160 | 3.2 | 9.7 | 0.00 | 0.00 | 0.00 | 56 | 1011.9 |
| 20260905043215 | 30 | 223 | 3.2 | 9.7 | 0.00 | 0.00 | 0.00 | 55 | 1011.9 |
| 20260905043151 | 30 | 148 | 3.2 | 9.7 | 0.00 | 0.00 | 0.00 | 55 | 1011.7 |
| 20260905042206 | 30 | 248 | 1.6 | 6.4 | 0.00 | 0.00 | 0.00 | 54 | 1011.7 |
| 20260905041637 | 30 | 233 | 3.2 | 8.0 | 0.00 | 0.00 | 0.00 | 54 | 1011.7 |
| 20260905041133 | 30 | 220 | 3.2 | 8.0 | 0.00 | 0.00 | 0.00 | 54 | 1011.9 |
| 20260905040631 | 30 | 165 | 1.6 | 9.7 | 0.00 | 0.00 | 0.00 | 54 | 1011.7 |
| 20260905040129 | 30 | 162 | 1.6 | 9.7 | 0.00 | 0.00 | 0.00 | 54 | 1011.9 |
| 20260905035628 | 30 | 161 | 1.6 | 6.4 | 0.00 | 0.00 | 0.00 | 55 | 1012.0 |
| 20260905035324 | 31 | 219 | 1.6 | 6.4 | 0.00 | 0.00 | 0.00 | 55 | 1012.0 |
| 20260905035040 | 31 | 136 | 1.6 | 8.0 | 0.00 | 0.00 | 0.00 | 55 | 1012.0 |
| 20260905034252 | 31 | 164 | 0.0 | 4.8 | 0.00 | 0.00 | 0.00 | 55 | 1011.9 |
| 20260905033744 | 31 | 115 | 0.0 | 4.8 | 0.00 | 0.00 | 0.00 | 55 | 1011.9 |
| 20260905033025 | 31 | 110 | 0.0 | 4.8 | 0.00 | 0.00 | 0.00 | 55 | 1011.9 |
| 20260905032457 | 31 | 124 | 0.0 | 4.8 | 0.00 | 0.00 | 0.00 | 55 | 1011.9 |
| 20260905032225 | 31 | 119 | 0.0 | 4.8 | 0.00 | 0.00 | 0.00 | 54 | 1011.7 |
| 20260905031650 | 31 | 127 | 0.0 | 6.4 | 0.00 | 0.00 | 0.00 | 53 | 1011.7 |
| 20260905030924 | 31 | 139 | 1.6 | 6.4 | 0.00 | 0.00 | 0.00 | 53 | 1011.7 |
| 20260905030357 | 31 | 148 | 1.6 | 3.2 | 0.00 | 0.00 | 0.00 | 52 | 1011.7 |
| 20260905025829 | 31 | 111 | 1.6 | 8.0 | 0.00 | 0.00 | 0.00 | 50 | 1011.7 |
| 20260905025329 | 31 | 117 | 1.6 | 8.0 | 0.00 | 0.00 | 0.00 | 50 | 1011.6 |
| 20260905024801 | 31 | 100 | 0.0 | 4.8 | 0.00 | 0.00 | 0.00 | 50 | 1011.5 |
| 20260905024258 | 31 | 119 | 0.0 | 4.8 | 0.00 | 0.00 | 0.00 | 49 | 1011.5 |
| 20260905023755 | 31 | 124 | 0.0 | 6.4 | 0.00 | 0.00 | 0.00 | 49 | 1011.4 |
| 20260905023544 | 31 | 139 | 1.6 | 6.4 | 0.00 | 0.00 | 0.00 | 49 | 1011.3 |
| 20260905023445 | 31 | 141 | 1.6 | 8.0 | 0.00 | 0.00 | 0.00 | 49 | 1011.3 |
| 20260905022223 | 31 | 129 | 1.6 | 8.0 | 0.00 | 0.00 | 0.00 | 49 | 1011.1 |
| 20260905021655 | 32 | 131 | 0.0 | 6.4 | 0.00 | 0.00 | 0.00 | 49 | 1011.1 |
| 20260905021637 | 32 | 131 | 0.0 | 3.2 | 0.00 | 0.00 | 0.00 | 49 | 1011.0 |
| 20260905020627 | 32 | 131 | 0.0 | 4.8 | 0.00 | 0.00 | 0.00 | 49 | 1010.9 |
| 20260905020116 | 32 | 131 | 0.0 | 4.8 | 0.00 | 0.00 | 0.00 | 49 | 1010.8 |
| 20260905015615 | 32 | 135 | 1.6 | 6.4 | 0.00 | 0.00 | 0.00 | 49 | 1010.7 |
| 20260905015115 | 32 | 150 | 1.6 | 6.4 | 0.00 | 0.00 | 0.00 | 49 | 1010.7 |
| 20260905014756 | 32 | 117 | 0.0 | 8.0 | 0.00 | 0.00 | 0.00 | 48 | 1010.6 |
| 20260905014646 | 32 | 137 | 1.6 | 8.0 | 0.00 | 0.00 | 0.00 | 48 | 1010.6 |
| 20260905013604 | 32 | 139 | 1.6 | 6.4 | 0.00 | 0.00 | 0.00 | 47 | 1010.5 |
| 20260905013105 | 32 | 108 | 1.6 | 9.7 | 0.00 | 0.00 | 0.00 | 46 | 1010.5 |
| 20260905012541 | 32 | 144 | 1.6 | 9.7 | 0.00 | 0.00 | 0.00 | 46 | 1010.5 |
| 20260905012044 | 33 | 139 | 1.6 | 8.0 | 0.00 | 0.00 | 0.00 | 45 | 1010.5 |
| 20260905011539 | 33 | 132 | 1.6 | 8.0 | 0.00 | 0.00 | 0.00 | 44 | 1010.5 |
| 20260905011042 | 33 | 143 | 1.6 | 8.0 | 0.00 | 0.00 | 0.00 | 44 | 1010.3 |
| 20260905010741 | 33 | 129 | 3.2 | 8.0 | 0.00 | 0.00 | 0.00 | 43 | 1010.3 |
| 20260905005955 | 33 | 131 | 3.2 | 8.0 | 0.00 | 0.00 | 0.00 | 43 | 1010.3 |
| 20260905005449 | 33 | 121 | 3.2 | 8.0 | 0.00 | 0.00 | 0.00 | 42 | 1010.1 |
| 20260905004931 | 33 | 99 | 4.8 | 8.0 | 0.00 | 0.00 | 0.00 | 42 | 1010.1 |
| 20260905004431 | 33 | 132 | 3.2 | 9.7 | 0.00 | 0.00 | 0.00 | 41 | 1010.1 |
| 20260905003905 | 34 | 150 | 3.2 | 11.3 | 0.00 | 0.00 | 0.00 | 41 | 1010.1 |
| 20260905003353 | 34 | 139 | 4.8 | 14.5 | 0.00 | 0.00 | 0.00 | 40 | 1010.1 |
| 20260905003109 | 34 | 120 | 4.8 | 14.5 | 0.00 | 0.00 | 0.00 | 40 | 1010.1 |
| 20260905002353 | 35 | 110 | 3.2 | 11.3 | 0.00 | 0.00 | 0.00 | 40 | 1010.0 |
| 20260905001825 | 35 | 155 | 3.2 | 11.3 | 0.00 | 0.00 | 0.00 | 40 | 1009.9 |
| 20260905001312 | 35 | 158 | 3.2 | 11.3 | 0.00 | 0.00 | 0.00 | 39 | 1009.9 |
| 20260905000748 | 35 | 108 | 3.2 | 11.3 | 0.00 | 0.00 | 0.00 | 38 | 1009.9 |
| 20260905000248 | 35 | 139 | 4.8 | 11.3 | 0.00 | 0.00 | 0.00 | 38 | 1009.9 |
| 20260904235748 | 35 | 122 | 4.8 | 11.3 | 0.00 | 0.00 | 0.00 | 38 | 1009.8 |
| 20260904235504 | 35 | 111 | 4.8 | 12.9 | 0.00 | 0.00 | 0.00 | 38 | 1009.9 |
| 20260904234746 | 35 | 176 | 6.4 | 12.9 | 0.00 | 0.00 | 0.00 | 38 | 1009.9 |
| 20260904234507 | 35 | 115 | 4.8 | 12.9 | 0.00 | 0.00 | 0.00 | 38 | 1009.8 |
| 20260904233742 | 35 | 125 | 4.8 | 12.9 | 0.00 | 0.00 | 0.00 | 38 | 1009.8 |
| 20260904233245 | 36 | 159 | 4.8 | 12.9 | 0.00 | 0.00 | 0.00 | 38 | 1009.8 |
| 20260904232720 | 36 | 127 | 4.8 | 12.9 | 0.00 | 0.00 | 0.00 | 38 | 1009.8 |
| 20260904232219 | 36 | 186 | 4.8 | 12.9 | 0.00 | 0.00 | 0.00 | 38 | 1009.7 |
| 20260904231654 | 36 | 143 | 4.8 | 12.9 | 0.00 | 0.00 | 0.00 | 38 | 1009.8 |
| 20260904231126 | 36 | 139 | 6.4 | 16.1 | 0.00 | 0.00 | 0.00 | 38 | 1009.8 |
| 20260904230623 | 36 | 152 | 8.0 | 17.7 | 0.00 | 0.00 | 0.00 | 37 | 1009.8 |
| 20260904230053 | 36 | 103 | 6.4 | 12.9 | 0.00 | 0.00 | 0.00 | 37 | 1009.8 |
| 20260904225534 | 36 | 113 | 6.4 | 14.5 | 0.00 | 0.00 | 0.00 | 38 | 1009.8 |
| 20260904225034 | 36 | 113 | 6.4 | 16.1 | 0.00 | 0.00 | 0.00 | 37 | 1009.9 |
| 20260904224532 | 36 | 229 | 6.4 | 16.1 | 0.00 | 0.00 | 0.00 | 37 | 1009.9 |
| 20260904224030 | 36 | 129 | 4.8 | 14.5 | 0.00 | 0.00 | 0.00 | 38 | 1009.9 |
| 20260904223502 | 36 | 153 | 6.4 | 12.9 | 0.00 | 0.00 | 0.00 | 38 | 1010.0 |
| 20260904223007 | 36 | 187 | 6.4 | 16.1 | 0.00 | 0.00 | 0.00 | 37 | 1010.0 |
| 20260904222433 | 36 | 129 | 6.4 | 16.1 | 0.00 | 0.00 | 0.00 | 38 | 1010.0 |
| 20260904221915 | 37 | 144 | 6.4 | 12.9 | 0.00 | 0.00 | 0.00 | 38 | 1010.0 |
| 20260904221414 | 37 | 148 | 4.8 | 14.5 | 0.00 | 0.00 | 0.00 | 39 | 1009.9 |
| 20260904220847 | 37 | 214 | 4.8 | 11.3 | 0.00 | 0.00 | 0.00 | 38 | 1009.9 |
| 20260904220345 | 36 | 117 | 6.4 | 14.5 | 0.00 | 0.00 | 0.00 | 38 | 1009.9 |
| 20260904215842 | 36 | 236 | 6.4 | 14.5 | 0.00 | 0.00 | 0.00 | 38 | 1010.0 |
| 20260904215314 | 36 | 179 | 6.4 | 14.5 | 0.00 | 0.00 | 0.00 | 39 | 1010.1 |
| 20260904214748 | 36 | 111 | 8.0 | 19.3 | 0.00 | 0.00 | 0.00 | 39 | 1010.1 |
| 20260904214222 | 36 | 258 | 8.0 | 19.3 | 0.00 | 0.00 | 0.00 | 38 | 1010.2 |
| 20260904213654 | 36 | 147 | 8.0 | 17.7 | 0.00 | 0.00 | 0.00 | 40 | 1010.2 |
| 20260904213149 | 36 | 106 | 8.0 | 17.7 | 0.00 | 0.00 | 0.00 | 39 | 1010.2 |
| 20260904212645 | 36 | 129 | 6.4 | 17.7 | 0.00 | 0.00 | 0.00 | 39 | 1010.3 |
| 20260904212142 | 36 | 142 | 6.4 | 14.5 | 0.00 | 0.00 | 0.00 | 39 | 1010.4 |
| 20260904211639 | 36 | 141 | 8.0 | 14.5 | 0.00 | 0.00 | 0.00 | 38 | 1010.4 |
| 20260904211133 | 36 | 201 | 8.0 | 17.7 | 0.00 | 0.00 | 0.00 | 38 | 1010.5 |
| 20260904210631 | 36 | 70 | 8.0 | 17.7 | 0.00 | 0.00 | 0.00 | 38 | 1010.5 |
| 20260904210110 | 36 | 194 | 6.4 | 17.7 | 0.00 | 0.00 | 0.00 | 37 | 1010.6 |
| 20260904205816 | 36 | 136 | 6.4 | 17.7 | 0.00 | 0.00 | 0.00 | 38 | 1010.6 |
| 20260904205054 | 37 | 191 | 6.4 | 16.1 | 0.00 | 0.00 | 0.00 | 37 | 1010.7 |
| 20260904204549 | 37 | 130 | 6.4 | 16.1 | 0.00 | 0.00 | 0.00 | 37 | 1010.7 |
| 20260904204048 | 36 | 189 | 6.4 | 16.1 | 0.00 | 0.00 | 0.00 | 37 | 1010.7 |
| 20260904203518 | 37 | 120 | 6.4 | 16.1 | 0.00 | 0.00 | 0.00 | 36 | 1010.8 |
| 20260904203018 | 37 | 141 | 6.4 | 14.5 | 0.00 | 0.00 | 0.00 | 38 | 1010.9 |
| 20260904202454 | 37 | 134 | 6.4 | 14.5 | 0.00 | 0.00 | 0.00 | 38 | 1011.0 |
| 20260904201924 | 37 | 212 | 4.8 | 20.9 | 0.00 | 0.00 | 0.00 | 37 | 1011.0 |
| 20260904201620 | 36 | 86 | 6.4 | 20.9 | 0.00 | 0.00 | 0.00 | 38 | 1011.1 |
| 20260904200833 | 36 | 145 | 8.0 | 17.7 | 0.00 | 0.00 | 0.00 | 39 | 1011.2 |
| 20260904200306 | 36 | 108 | 8.0 | 25.7 | 0.00 | 0.00 | 0.00 | 38 | 1011.2 |
| 20260904195738 | 36 | 109 | 8.0 | 22.5 | 0.00 | 0.00 | 0.00 | 38 | 1011.2 |
| 20260904195237 | 36 | 127 | 8.0 | 19.3 | 0.00 | 0.00 | 0.00 | 39 | 1011.3 |
| 20260904195159 | 36 | 255 | 6.4 | 19.3 | 0.00 | 0.00 | 0.00 | 38 | 1011.5 |
| 20260904194152 | 36 | 166 | 6.4 | 16.1 | 0.00 | 0.00 | 0.00 | 40 | 1011.5 |
| 20260904194137 | 36 | 167 | 8.0 | 19.3 | 0.00 | 0.00 | 0.00 | 39 | 1011.6 |
| 20260904193144 | 36 | 137 | 6.4 | 20.9 | 0.00 | 0.00 | 0.00 | 40 | 1011.7 |
| 20260904192910 | 36 | 131 | 4.8 | 17.7 | 0.00 | 0.00 | 0.00 | 39 | 1011.9 |
| 20260904192340 | 36 | 209 | 4.8 | 14.5 | 0.00 | 0.00 | 0.00 | 40 | 1011.9 |
| 20260904191547 | 36 | 207 | 4.8 | 16.1 | 0.00 | 0.00 | 0.00 | 40 | 1012.0 |
| 20260904191018 | 36 | 233 | 6.4 | 16.1 | 0.00 | 0.00 | 0.00 | 42 | 1012.0 |
| 20260904190517 | 36 | 141 | 6.4 | 14.5 | 0.00 | 0.00 | 0.00 | 41 | 1012.1 |
| 20260904190013 | 36 | 120 | 6.4 | 14.5 | 0.00 | 0.00 | 0.00 | 40 | 1012.2 |
| 20260904185509 | 36 | 155 | 6.4 | 19.3 | 0.00 | 0.00 | 0.00 | 41 | 1012.2 |
| 20260904185009 | 36 | 172 | 6.4 | 19.3 | 0.00 | 0.00 | 0.00 | 40 | 1012.2 |
| 20260904184443 | 36 | 91 | 6.4 | 17.7 | 0.00 | 0.00 | 0.00 | 43 | 1012.2 |
| 20260904183918 | 35 | 172 | 6.4 | 17.7 | 0.00 | 0.00 | 0.00 | 43 | 1012.3 |
| 20260904183348 | 36 | 135 | 4.8 | 14.5 | 0.00 | 0.00 | 0.00 | 42 | 1012.5 |
| 20260904183115 | 36 | 114 | 3.2 | 14.5 | 0.00 | 0.00 | 0.00 | 41 | 1012.5 |
| 20260904182318 | 35 | 221 | 4.8 | 14.5 | 0.00 | 0.00 | 0.00 | 43 | 1012.5 |
| 20260904181751 | 35 | 136 | 4.8 | 14.5 | 0.00 | 0.00 | 0.00 | 44 | 1012.7 |
| 20260904181513 | 35 | 199 | 4.8 | 14.5 | 0.00 | 0.00 | 0.00 | 44 | 1012.8 |
| 20260904180747 | 35 | 141 | 4.8 | 14.5 | 0.00 | 0.00 | 0.00 | 43 | 1012.8 |
| 20260904180218 | 35 | 146 | 4.8 | 16.1 | 0.00 | 0.00 | 0.00 | 44 | 1012.9 |
| 20260904175717 | 35 | 114 | 6.4 | 17.7 | 0.00 | 0.00 | 0.00 | 46 | 1013.1 |
| 20260904175150 | 35 | 114 | 6.4 | 14.5 | 0.00 | 0.00 | 0.00 | 44 | 1013.0 |
| 20260904174625 | 35 | 148 | 6.4 | 14.5 | 0.00 | 0.00 | 0.00 | 43 | 1013.1 |
| 20260904174326 | 35 | 138 | 6.4 | 14.5 | 0.00 | 0.00 | 0.00 | 46 | 1013.1 |
| 20260904173541 | 35 | 111 | 4.8 | 19.3 | 0.00 | 0.00 | 0.00 | 45 | 1013.1 |
| 20260904173259 | 35 | 226 | 3.2 | 14.5 | 0.00 | 0.00 | 0.00 | 43 | 1013.3 |
| 20260904172541 | 35 | 221 | 3.2 | 14.5 | 0.00 | 0.00 | 0.00 | 46 | 1013.4 |
| 20260904172243 | 34 | 150 | 4.8 | 14.5 | 0.00 | 0.00 | 0.00 | 47 | 1013.5 |
| 20260904171511 | 34 | 234 | 6.4 | 14.5 | 0.00 | 0.00 | 0.00 | 46 | 1013.5 |
| 20260904170942 | 34 | 101 | 3.2 | 11.3 | 0.00 | 0.00 | 0.00 | 45 | 1013.5 |
| 20260904170440 | 33 | 230 | 3.2 | 11.3 | 0.00 | 0.00 | 0.00 | 49 | 1013.5 |
| 20260904165939 | 33 | 146 | 4.8 | 11.3 | 0.00 | 0.00 | 0.00 | 49 | 1013.6 |
| 20260904165410 | 33 | 105 | 4.8 | 11.3 | 0.00 | 0.00 | 0.00 | 51 | 1013.6 |
| 20260904164908 | 33 | 212 | 4.8 | 16.1 | 0.00 | 0.00 | 0.00 | 52 | 1013.7 |
| 20260904164342 | 33 | 223 | 4.8 | 16.1 | 0.00 | 0.00 | 0.00 | 52 | 1013.7 |
| 20260904163841 | 32 | 244 | 4.8 | 14.5 | 0.00 | 0.00 | 0.00 | 53 | 1013.7 |
| 20260904163343 | 32 | 191 | 4.8 | 14.5 | 0.00 | 0.00 | 0.00 | 55 | 1013.7 |
| 20260904163105 | 32 | 219 | 6.4 | 12.9 | 0.00 | 0.00 | 0.00 | 55 | 1013.8 |
| 20260904162345 | 32 | 238 | 4.8 | 11.3 | 0.00 | 0.00 | 0.00 | 55 | 1013.7 |
| 20260904161818 | 32 | 214 | 6.4 | 17.7 | 0.00 | 0.00 | 0.00 | 55 | 1013.7 |
| 20260904161318 | 32 | 136 | 6.4 | 17.7 | 0.00 | 0.00 | 0.00 | 58 | 1013.7 |
| 20260904161245 | 32 | 122 | 4.8 | 14.5 | 0.00 | 0.00 | 0.00 | 58 | 1013.7 |
| 20260904160305 | 32 | 128 | 6.4 | 16.1 | 0.00 | 0.00 | 0.00 | 58 | 1013.8 |
| 20260904155736 | 31 | 139 | 6.4 | 16.1 | 0.00 | 0.00 | 0.00 | 58 | 1013.8 |
| 20260904155234 | 31 | 149 | 6.4 | 16.1 | 0.00 | 0.00 | 0.00 | 59 | 1013.7 |
| 20260904154707 | 31 | 233 | 6.4 | 16.1 | 0.00 | 0.00 | 0.00 | 60 | 1013.7 |
| 20260904154206 | 31 | 207 | 6.4 | 16.1 | 0.00 | 0.00 | 0.00 | 61 | 1013.7 |
| 20260904153638 | 31 | 185 | 4.8 | 16.1 | 0.00 | 0.00 | 0.00 | 62 | 1013.6 |
| 20260904153134 | 30 | 217 | 8.0 | 12.9 | 0.00 | 0.00 | 0.00 | 65 | 1013.7 |
| 20260904152608 | 30 | 226 | 9.7 | 19.3 | 0.00 | 0.00 | 0.00 | 65 | 1013.6 |
| 20260904152306 | 30 | 245 | 6.4 | 17.7 | 0.00 | 0.00 | 0.00 | 65 | 1013.6 |
| 20260904151514 | 30 | 135 | 4.8 | 16.1 | 0.00 | 0.00 | 0.00 | 68 | 1013.5 |
| 20260904150954 | 30 | 210 | 4.8 | 16.1 | 0.00 | 0.00 | 0.00 | 69 | 1013.5 |
| 20260904150429 | 29 | 181 | 4.8 | 12.9 | 0.00 | 0.00 | 0.00 | 70 | 1013.5 |
| 20260904145902 | 29 | 195 | 4.8 | 12.9 | 0.00 | 0.00 | 0.00 | 71 | 1013.6 |
| 20260904145357 | 28 | 114 | 4.8 | 12.9 | 0.00 | 0.00 | 0.00 | 72 | 1013.5 |
| 20260904144857 | 28 | 236 | 6.4 | 16.1 | 0.00 | 0.00 | 0.00 | 73 | 1013.6 |
| 20260904144829 | 28 | 167 | 6.4 | 16.1 | 0.00 | 0.00 | 0.00 | 75 | 1013.6 |
| 20260904143809 | 28 | 196 | 6.4 | 14.5 | 0.00 | 0.00 | 0.00 | 75 | 1013.6 |
| 20260904143236 | 28 | 226 | 6.4 | 11.3 | 0.00 | 0.00 | 0.00 | 75 | 1013.7 |
| 20260904142925 | 28 | 218 | 6.4 | 12.9 | 0.00 | 0.00 | 0.00 | 76 | 1013.7 |
| 20260904142206 | 28 | 202 | 4.8 | 12.9 | 0.00 | 0.00 | 0.00 | 77 | 1013.7 |
| 20260904141645 | 28 | 207 | 4.8 | 12.9 | 0.00 | 0.00 | 0.00 | 78 | 1013.6 |
| 20260904141138 | 27 | 120 | 4.8 | 11.3 | 0.00 | 0.00 | 0.00 | 78 | 1013.5 |
| 20260904140640 | 27 | 212 | 6.4 | 14.5 | 0.00 | 0.00 | 0.00 | 79 | 1013.6 |
| 20260904140136 | 27 | 252 | 6.4 | 14.5 | 0.00 | 0.00 | 0.00 | 79 | 1013.6 |
| 20260904135635 | 27 | 222 | 4.8 | 12.9 | 0.00 | 0.00 | 0.00 | 80 | 1013.5 |
| 20260904135340 | 27 | 146 | 4.8 | 12.9 | 0.00 | 0.00 | 0.00 | 81 | 1013.5 |
| 20260904134842 | 26 | 217 | 6.4 | 17.7 | 0.00 | 0.00 | 0.00 | 82 | 1013.4 |
| 20260904134049 | 26 | 134 | 4.8 | 14.5 | 0.00 | 0.00 | 0.00 | 83 | 1013.3 |
| 20260904133752 | 26 | 135 | 4.8 | 17.7 | 0.00 | 0.00 | 0.00 | 84 | 1013.3 |
| 20260904133009 | 26 | 257 | 4.8 | 17.7 | 0.00 | 0.00 | 0.00 | 84 | 1013.3 |
| 20260904132511 | 26 | 115 | 4.8 | 14.5 | 0.00 | 0.00 | 0.00 | 84 | 1013.2 |
| 20260904131949 | 26 | 265 | 4.8 | 14.5 | 0.00 | 0.00 | 0.00 | 85 | 1013.2 |
| 20260904131429 | 26 | 238 | 3.2 | 9.7 | 0.00 | 0.00 | 0.00 | 85 | 1013.2 |
| 20260904130929 | 26 | 117 | 3.2 | 12.9 | 0.00 | 0.00 | 0.00 | 85 | 1013.1 |
| 20260904130429 | 26 | 112 | 3.2 | 12.9 | 0.00 | 0.00 | 0.00 | 85 | 1013.1 |
| 20260904125935 | 25 | 165 | 3.2 | 8.0 | 0.00 | 0.00 | 0.00 | 85 | 1013.0 |
| 20260904125629 | 25 | 173 | 3.2 | 9.7 | 0.00 | 0.00 | 0.00 | 85 | 1013.0 |
| 20260904124840 | 25 | 133 | 3.2 | 9.7 | 0.00 | 0.00 | 0.00 | 85 | 1012.9 |
| 20260904124339 | 25 | 135 | 3.2 | 12.9 | 0.00 | 0.00 | 0.00 | 85 | 1012.9 |
| 20260904123814 | 25 | 135 | 3.2 | 9.7 | 0.00 | 0.00 | 0.00 | 86 | 1012.8 |
| 20260904123304 | 25 | 127 | 1.6 | 8.0 | 0.00 | 0.00 | 0.00 | 86 | 1012.8 |
| 20260904122805 | 25 | 153 | 1.6 | 6.4 | 0.00 | 0.00 | 0.00 | 86 | 1012.9 |
| 20260904122248 | 25 | 165 | 1.6 | 8.0 | 0.00 | 0.00 | 0.00 | 86 | 1012.9 |
| 20260904121743 | 25 | 136 | 1.6 | 8.0 | 0.00 | 0.00 | 0.00 | 86 | 1012.8 |
| 20260904121240 | 25 | 138 | 0.0 | 6.4 | 0.00 | 0.00 | 0.00 | 86 | 1012.8 |
| 20260904120717 | 25 | 120 | 0.0 | 4.8 | 0.00 | 0.00 | 0.00 | 86 | 1012.8 |
| 20260904120218 | 25 | 250 | 1.6 | 4.8 | 0.00 | 0.00 | 0.00 | 86 | 1012.8 |
| 20260904115654 | 25 | 121 | 1.6 | 9.7 | 0.00 | 0.00 | 0.00 | 86 | 1012.8 |
| 20260904115133 | 25 | 125 | 3.2 | 8.0 | 0.00 | 0.00 | 0.00 | 86 | 1012.7 |
| 20260904114604 | 25 | 142 | 1.6 | 8.0 | 0.00 | 0.00 | 0.00 | 86 | 1012.7 |
| 20260904114102 | 25 | 153 | 1.6 | 6.4 | 0.00 | 0.00 | 0.00 | 86 | 1012.6 |
| 20260904113534 | 25 | 135 | 1.6 | 6.4 | 0.00 | 0.00 | 0.00 | 85 | 1012.5 |
| 20260904113009 | 25 | 126 | 1.6 | 8.0 | 0.00 | 0.00 | 0.00 | 85 | 1012.5 |
| 20260904112505 | 25 | 127 | 1.6 | 8.0 | 0.00 | 0.00 | 0.00 | 85 | 1012.4 |
| 20260904112233 | 25 | 131 | 0.0 | 8.0 | 0.00 | 0.00 | 0.00 | 84 | 1012.4 |
| 20260904111459 | 25 | 134 | 1.6 | 9.7 | 0.00 | 0.00 | 0.00 | 84 | 1012.4 |
| 20260904111226 | 25 | 164 | 1.6 | 11.3 | 0.00 | 0.00 | 0.00 | 84 | 1012.3 |
| 20260904110430 | 25 | 113 | 1.6 | 11.3 | 0.00 | 0.00 | 0.00 | 84 | 1012.3 |
| 20260904105926 | 25 | 141 | 3.2 | 11.3 | 0.00 | 0.00 | 0.00 | 84 | 1012.3 |
| 20260904105626 | 25 | 108 | 1.6 | 6.4 | 0.00 | 0.00 | 0.00 | 84 | 1012.4 |
| 20260904104856 | 25 | 136 | 0.0 | 3.2 | 0.00 | 0.00 | 0.00 | 83 | 1012.4 |
| 20260904104356 | 25 | 122 | 1.6 | 8.0 | 0.00 | 0.00 | 0.00 | 83 | 1012.3 |
| 20260904103832 | 25 | 117 | 1.6 | 8.0 | 0.00 | 0.00 | 0.00 | 83 | 1012.3 |
| 20260904103524 | 25 | 134 | 1.6 | 6.4 | 0.00 | 0.00 | 0.00 | 83 | 1012.2 |
| 20260904102803 | 25 | 231 | 3.2 | 9.7 | 0.00 | 0.00 | 0.00 | 83 | 1012.2 |
| 20260904102236 | 25 | 149 | 1.6 | 9.7 | 0.00 | 0.00 | 0.00 | 83 | 1012.2 |
| 20260904101708 | 25 | 143 | 1.6 | 6.4 | 0.00 | 0.00 | 0.00 | 82 | 1012.1 |
| 20260904101141 | 25 | 124 | 1.6 | 8.0 | 0.00 | 0.00 | 0.00 | 82 | 1012.2 |
| 20260904100639 | 25 | 101 | 1.6 | 8.0 | 0.00 | 0.00 | 0.00 | 82 | 1012.2 |
| 20260904100111 | 25 | 133 | 1.6 | 12.9 | 0.00 | 0.00 | 0.00 | 82 | 1012.1 |
| 20260904095543 | 25 | 171 | 1.6 | 12.9 | 0.00 | 0.00 | 0.00 | 81 | 1012.1 |
| 20260904095043 | 25 | 236 | 1.6 | 6.4 | 0.00 | 0.00 | 0.00 | 81 | 1012.1 |
| 20260904094514 | 25 | 131 | 1.6 | 8.0 | 0.00 | 0.00 | 0.00 | 80 | 1012.1 |
| 20260904093950 | 25 | 154 | 1.6 | 8.0 | 0.00 | 0.00 | 0.00 | 80 | 1012.2 |
| 20260904093429 | 25 | 206 | 1.6 | 8.0 | 0.00 | 0.00 | 0.00 | 80 | 1012.1 |
| 20260904092928 | 25 | 184 | 1.6 | 8.0 | 0.00 | 0.00 | 0.00 | 80 | 1012.0 |
| 20260904092407 | 25 | 207 | 1.6 | 6.4 | 0.00 | 0.00 | 0.00 | 80 | 1012.0 |
| 20260904091907 | 25 | 142 | 1.6 | 12.9 | 0.00 | 0.00 | 0.00 | 79 | 1012.0 |
| 20260904091405 | 25 | 120 | 3.2 | 12.9 | 0.00 | 0.00 | 0.00 | 79 | 1012.0 |
| 20260904091121 | 25 | 228 | 1.6 | 11.3 | 0.00 | 0.00 | 0.00 | 79 | 1012.1 |
| 20260904090401 | 25 | 130 | 1.6 | 8.0 | 0.00 | 0.00 | 0.00 | 79 | 1012.1 |
| 20260904085833 | 25 | 158 | 3.2 | 8.0 | 0.00 | 0.00 | 0.00 | 79 | 1012.1 |